Location: Zwardon
(49.5170°N, 18.9830°E)
Time: 14:06:39
(UTC+01:00)

X-37B - Visible Passes

Search period start: 08 December 2022 00:00
Search period end: 18 December 2022 00:00
Orbit: 277 x 277 km, 45.0° (Epoch: 01 November)

Date Brightness Start Highest point End Pass type
(mag) Time Alt. Az. Time Alt. Az. Time Alt. Az.
09 Dec 2.8 17:02:43 10° SSE 17:03:03 10° SSE 17:03:21 10° SSE visible
10 Dec 2.4 17:02:04 10° SSW 17:03:31 14° SSE 17:04:40 11° SE visible
11 Dec 2.1 17:02:12 10° SSW 17:04:04 19° SSE 17:05:18 14° SE visible
12 Dec 1.8 17:02:34 10° SW 17:04:37 23° S 17:05:57 15° SE visible
13 Dec 1.6 17:03:02 10° SW 17:05:11 26° S 17:06:37 16° SE visible
14 Dec 1.6 17:03:36 10° WSW 17:05:46 28° S 17:07:19 15° SE visible
15 Dec 1.8 17:04:13 10° WSW 17:06:21 26° S 17:08:06 13° SE visible
16 Dec 2.1 17:04:53 10° WSW 17:06:56 23° S 17:08:58 10° SE visible
17 Dec 2.6 17:05:40 10° WSW 17:07:29 18° SSW 17:09:18 10° SSE visible
